Temperature
25 23 23 23 23 24 24 23 23 23 23 22 21 21 21 20 20 19 19 19 19 19 19 19 19 19 19 19 19 18 18 18 18 18 18 18 18 18 18 17 17 17 17 17
23 23 24 24 24 24 24 23 23 23 23 22 21 21 21 20 20 20 19 19 19 19 19 19 19 19 19 19 19 19 18 18 18 18 18 18 18 17 17 17 17 17 17 17
25 25 25 25 25 24 24 23 23 23 23 22 22 21 21 21 20 20 20 20 20 19 19 19 19 19 19 19 19 18 18 18 18 18 18 17 17 17 17 17 17 17 17 17
24 25 25 25 25 25 24 24 24 23 21 20 22 20 21 20 19 20 20 19 20 20 20 20 19 19 19 19 19 18 18 18 18 18 18 17 17 17 17 17 17 17 17 17
25 25 25 26 26 25 24 24 23 22 21 20 20 20 20 19 19 19 19 20 20 20 20 20 20 19 19 19 18 18 18 18 18 18 18 17 17 17 17 17 17 17 17 17
25 25 26 26 26 25 24 23 21 19 19 20 21 20 20 19 19 20 20 20 20 20 20 20 20 19 19 19 18 18 18 18 18 18 18 17 17 17 17 17 17 17 17 17
25 25 25 25 25 24 23 21 21 21 20 20 20 20 19 20 20 20 20 20 20 20 20 20 20 19 19 19 19 18 18 18 18 18 18 17 17 17 17 17 17 17 17 17
24 24 25 25 25 24 23 22 21 22 21 20 19 19 20 21 21 21 21 20 20 20 20 20 20 19 19 19 18 18 18 18 18 18 18 17 17 17 17 17 17 17 16 16
23 23 25 25 25 24 23 21 20 19 19 19 19 19 20 20 20 20 20 20 20 20 20 20 20 19 19 19 18 18 18 18 18 18 17 17 17 17 16 16 16 16 16 16
23 24 24 24 24 23 22 19 18 19 20 20 20 20 20 20 20 19 19 19 20 20 20 20 20 19 19 19 18 18 18 18 17 17 17 17 17 16 16 16 16 16 16 16
22 23 23 23 23 23 22 20 18 17 18 19 20 20 21 20 19 19 19 19 20 20 20 20 20 19 19 19 18 18 18 18 17 17 17 17 16 16 16 16 16 16 16 16
20 20 21 22 22 22 22 21 18 20 19 17 18 20 21 20 19 19 19 20 20 20 20 20 20 19 19 19 18 18 18 18 17 17 17 16 16 16 16 16 15 15 15 15
20 20 21 21 21 22 22 20 18 17 16 16 18 20 20 19 19 19 20 20 20 20 20 20 20 19 19 19 18 18 18 18 17 17 17 16 16 16 16 15 15 15 15 15
20 18 20 21 21 21 22 21 19 18 18 18 18 19 19 19 18 19 19 20 20 20 20 20 20 19 19 19 18 18 18 17 17 17 16 16 16 16 16 15 15 15 15 15
20 20 20 20 21 21 22 22 20 20 19 19 19 19 19 19 18 19 19 20 20 20 20 20 20 19 19 19 18 18 17 17 17 16 16 16 16 16 15 15 15 15 15 14
18 20 20 21 21 21 21 21 21 20 20 19 19 19 19 18 19 19 19 19 19 19 19 19 19 19 19 19 18 18 17 17 17 16 16 16 16 15 15 15 15 15 14 14
17 18 19 19 20 21 21 21 20 20 20 19 19 19 18 17 18 18 19 19 19 19 19 19 19 19 19 18 18 18 17 17 16 16 16 16 15 15 15 15 15 15 14 14
16 16 16 17 20 21 20 20 20 20 20 19 19 18 18 18 18 19 19 20 20 19 19 19 19 19 18 18 17 17 17 17 16 16 16 15 15 15 15 15 14 14 14 14
15 16 15 16 19 20 20 20 20 20 20 19 18 17 17 18 18 18 19 20 20 20 19 19 19 19 18 18 17 17 17 16 16 16 15 15 15 15 15 14 14 14 14 13
14 14 15 16 19 20 20 21 21 20 20 19 18 17 17 18 17 17 19 19 19 19 19 19 18 18 17 17 17 17 16 16 16 15 15 15 15 14 14 14 14 13 13 13
17 15 16 16 18 18 19 20 21 20 20 20 19 18 18 18 18 19 19 19 19 19 19 18 18 17 17 17 16 16 16 15 15 15 15 14 14 14 14 14 13 13 13 13
16 16 15 15 17 18 19 19 19 19 20 20 20 20 19 19 19 19 19 19 19 18 18 18 17 17 17 16 16 16 15 15 15 14 14 14 14 14 14 13 13 13 13 13
14 15 14 15 17 18 19 19 21 21 21 21 21 20 20 19 19 19 19 19 18 18 18 17 17 17 16 16 16 15 15 15 14 14 14 14 14 13 13 13 13 12 12 12
15 14 13 14 16 17 19 20 21 21 21 21 21 20 20 19 19 19 19 18 18 18 17 17 17 16 16 16 15 15 15 14 14 14 14 13 13 13 13 13 12 12 12 12
15 14 14 15 15 17 19 20 21 21 21 20 20 20 20 19 19 19 18 18 18 17 17 16 16 16 16 15 15 15 14 14 14 13 13 13 13 13 12 12 12 12 12 12
14 14 14 15 17 16 18 20 20 20 20 20 20 19 19 19 19 18 18 18 17 17 17 16 16 16 15 15 15 15 14 14 14 13 13 13 13 12 12 12 12 12 12 11
Wind_Speed
4 4 1 5 5 4 3 3 2 3 2 3 3 2 2 4 5 5 5 4 4 4 3 1 1 1 1 0 1 1 1 1 1 1 1 1 1 1 1 1 1 1 1 0
5 3 5 3 3 3 2 1 1 1 2 3 2 1 2 4 5 6 6 6 5 3 2 2 1 1 1 1 1 1 0 1 1 0 1 1 1 1 0 1 1 1 1 1
4 5 1 1 1 1 1 4 4 3 3 4 3 3 2 2 2 3 4 4 5 6 6 4 3 2 2 2 2 1 0 0 1 1 1 1 2 2 2 2 2 1 1 1
3 4 1 1 2 4 3 4 5 5 4 1 1 2 5 2 2 4 5 5 6 6 6 5 4 3 3 3 2 1 0 0 1 1 1 1 1 0 1 1 1 2 2 2
4 2 1 2 3 4 3 2 5 5 4 2 2 1 6 1 4 6 6 7 7 7 6 6 6 5 4 2 2 1 1 1 1 2 1 1 0 0 0 1 2 2 2 2
5 3 2 3 0 3 4 7 7 6 5 1 2 2 6 4 6 5 5 6 6 6 5 5 4 3 2 1 1 1 1 0 1 1 2 1 1 1 1 1 1 1 2 2
5 5 2 1 3 3 6 6 4 4 4 5 2 2 7 6 5 6 6 6 5 5 5 5 4 3 2 1 1 1 1 0 0 1 1 0 1 2 1 1 0 0 1 1
1 5 3 1 4 4 3 7 6 4 4 4 2 4 7 5 3 3 3 3 3 4 5 5 5 4 3 2 1 1 1 1 0 1 1 0 1 1 1 0 0 0 1 1
6 6 4 0 1 7 5 3 5 6 2 1 5 6 6 1 1 1 2 3 3 4 5 5 4 4 3 3 2 2 2 1 0 1 1 1 1 1 1 1 1 1 1 1
8 3 4 3 4 5 5 8 6 5 4 2 5 5 5 4 3 2 3 3 2 3 4 4 4 4 4 3 2 2 2 1 1 1 1 1 1 1 1 2 2 2 2 2
5 4 3 3 1 2 4 4 6 5 5 5 3 7 5 7 6 6 5 5 5 4 5 4 3 3 3 3 2 2 1 1 2 1 1 2 1 1 2 2 1 2 2 2
4 5 1 5 4 2 4 6 7 4 3 4 4 7 5 5 6 6 5 5 4 4 3 3 3 3 3 3 2 2 2 1 1 2 2 1 1 2 2 2 2 2 2 2
6 6 2 6 6 3 2 2 4 6 5 5 4 7 3 1 2 3 5 5 5 4 4 3 3 3 3 3 3 2 2 2 1 2 2 2 1 1 1 1 2 2 2 2
6 5 6 7 7 4 2 2 4 6 4 5 7 7 6 4 3 3 3 3 4 4 5 4 3 2 3 3 3 3 2 1 2 2 2 1 0 1 1 1 1 1 1 2
5 4 4 4 4 3 3 3 5 5 7 7 7 7 9 7 6 5 4 4 4 4 4 5 4 3 3 3 2 2 2 1 2 2 1 1 1 0 1 1 1 1 1 1
4 4 2 1 1 2 2 2 3 4 3 4 3 6 5 2 3 4 5 5 5 5 5 4 4 3 3 3 3 3 2 2 2 2 1 1 0 1 1 1 1 1 2 2
2 5 3 2 3 2 3 4 5 4 4 6 6 7 2 3 5 6 6 6 6 5 4 4 4 4 3 3 3 3 3 2 2 2 1 0 0 0 1 1 1 1 1 1
6 5 4 2 2 3 7 4 4 4 3 4 4 3 4 5 4 2 3 5 5 5 4 3 3 3 2 2 3 3 2 2 2 1 1 1 1 1 1 1 1 1 1 0
5 7 5 4 3 4 6 3 3 4 3 2 4 3 3 5 4 2 1 3 5 5 4 4 3 3 3 3 3 4 2 2 1 1 1 1 1 1 1 1 2 2 1 1
6 5 6 4 4 6 7 4 2 4 3 3 4 5 5 6 3 4 2 3 3 3 3 4 4 4 3 2 3 4 2 1 1 1 1 1 1 2 2 2 2 1 1 1
3 4 4 4 4 7 6 3 2 3 7 4 5 6 7 6 5 4 4 4 4 4 4 5 5 4 2 2 4 3 2 2 2 1 1 1 1 2 3 2 1 1 1 1
4 3 3 4 3 7 3 3 5 7 3 3 5 5 6 5 4 4 5 5 5 5 4 5 4 2 1 2 3 2 2 2 1 1 0 1 1 2 1 1 1 1 1 1
4 6 5 7 7 5 4 5 4 3 3 4 5 4 6 5 4 4 4 5 5 5 4 4 4 2 1 1 3 2 2 1 1 1 0 1 2 2 1 1 1 1 1 1
3 2 2 3 6 5 5 4 2 2 3 3 4 6 7 6 5 5 5 5 4 3 4 3 4 3 2 2 2 3 2 1 2 1 1 1 1 2 2 1 1 1 1 2
4 2 1 3 6 5 5 3 2 1 2 3 3 4 7 8 6 5 5 5 4 3 3 4 4 3 2 2 1 1 1 2 2 1 0 1 1 1 2 2 1 2 3 3
4 6 5 6 6 4 6 5 2 3 3 4 4 4 4 6 7 6 5 4 4 4 3 3 3 3 2 1 1 1 1 2 2 1 1 1 1 1 1 2 3 3 3 4
Wind_Direction
39 62 262 234 197 188 174 179 226 252 178 131 163 206 213 184 173 185 190 193 197 211 224 207 197 160 93 92 135 131 83 12 39 32 355 341 318 327 354 332 328 325 330 133
35 312 253 209 168 147 155 152 223 33 109 115 140 256 236 189 195 199 199 202 203 207 211 204 186 146 139 153 137 101 59 19 25 336 283 246 244 286 329 353 5 6 24 53
192 248 232 132 165 143 236 189 201 175 74 65 77 344 282 240 192 198 202 200 199 201 209 208 200 196 179 187 198 207 218 47 12 16 35 29 36 27 24 14 7 2 47 60
247 261 258 238 233 167 259 238 171 144 109 339 74 289 283 252 238 223 222 213 210 209 205 198 200 201 199 207 195 188 290 40 43 73 75 95 106 352 318 350 359 2 30 46
263 251 248 246 244 171 214 52 100 115 115 59 27 199 286 283 247 245 231 223 217 209 200 198 200 200 203 195 168 145 57 2 22 71 99 105 134 212 0 33 24 17 10 16
251 269 217 216 62 123 118 68 60 55 69 10 261 192 278 241 231 244 234 227 216 202 196 198 195 178 187 173 150 131 126 50 27 65 75 90 128 128 90 37 8 4 0 6
325 319 309 141 83 43 81 83 39 5 4 261 274 209 256 256 234 219 224 219 203 188 182 181 170 166 173 172 170 148 151 242 344 79 94 131 161 146 148 207 269 346 1 352
205 293 283 191 167 172 150 133 153 198 230 276 312 248 260 269 244 205 195 185 171 174 176 179 177 169 170 171 170 156 179 227 226 176 197 169 142 138 144 174 46 333 306 303
179 250 290 289 143 135 130 134 148 131 133 304 289 288 301 323 40 103 129 132 163 172 173 176 172 168 173 171 175 163 146 116 149 181 158 111 97 102 93 54 48 8 330 335
160 216 302 320 63 37 117 137 101 117 147 256 295 285 256 256 238 207 168 167 171 163 169 169 170 174 177 175 173 135 136 142 100 86 113 99 80 78 77 73 44 26 13 19
135 157 310 18 110 185 98 88 101 112 148 160 250 273 229 213 210 201 199 182 173 175 178 173 170 168 165 154 148 144 136 118 91 79 82 73 62 64 62 54 30 26 27 37
135 125 234 275 284 210 144 152 146 153 206 172 183 265 282 199 198 188 188 175 169 174 173 164 160 148 144 149 155 158 157 150 151 131 112 93 59 58 53 29 15 25 23 20
131 113 72 341 340 3 73 130 138 128 121 154 177 263 323 61 178 181 175 170 162 165 162 155 151 155 163 165 167 172 177 182 152 122 110 81 45 31 18 0 1 23 28 26
116 111 158 197 224 226 225 182 152 132 154 198 219 245 291 279 221 199 181 172 162 167 165 167 173 182 179 173 173 177 184 171 135 119 110 92 348 334 333 344 9 23 44 41
102 136 186 221 240 215 220 209 175 179 188 193 226 220 244 239 211 191 171 161 157 171 178 184 188 188 180 171 169 165 163 148 138 131 133 222 271 350 12 17 23 36 41 33
78 133 136 299 287 228 259 276 191 199 190 208 227 252 251 221 147 156 168 168 175 186 191 191 184 172 172 175 174 165 162 158 139 140 186 236 43 38 3 341 18 31 27 25
100 124 121 247 299 44 284 248 202 194 196 179 212 237 191 170 177 184 185 180 178 179 183 179 178 175 176 177 170 170 179 155 137 152 184 27 65 360 312 316 16 360 7 32
136 122 132 151 72 223 243 256 196 184 226 214 231 237 190 183 164 158 178 178 174 172 169 165 158 156 155 155 158 154 144 143 150 159 202 229 206 252 282 341 324 311 307 323
145 136 123 130 177 267 288 253 184 172 265 221 193 171 136 122 85 357 251 167 170 169 166 160 150 143 137 144 150 137 132 140 148 196 234 237 219 232 264 284 279 279 299 313
68 95 117 131 158 224 246 260 196 117 288 241 173 164 151 121 138 245 207 145 134 129 131 130 120 112 119 134 134 134 148 153 202 237 246 242 211 219 240 254 261 273 279 283
51 57 113 152 199 252 254 261 115 160 240 221 179 175 165 175 196 188 151 141 139 136 132 128 124 129 144 141 135 146 167 213 230 228 227 254 240 230 234 248 258 289 301 322
167 147 167 146 184 252 259 140 180 216 224 171 186 184 171 166 147 140 142 142 141 135 132 132 132 138 141 134 135 157 221 236 214 166 208 274 285 271 258 249 280 287 282 328
192 190 188 190 214 246 241 222 245 195 189 196 185 180 157 150 157 152 146 146 148 147 148 143 141 143 139 149 156 192 244 238 115 111 264 298 318 323 312 252 261 285 279 285
262 157 159 258 271 272 272 264 264 210 216 199 171 159 154 155 159 156 149 147 148 150 150 140 135 153 201 223 204 212 232 185 146 162 279 314 337 339 339 315 264 247 264 270
227 168 185 263 280 308 309 275 240 195 155 134 141 154 159 149 154 159 157 159 159 156 151 147 159 180 213 214 233 245 208 155 153 173 255 331 336 328 326 316 291 264 257 245
207 184 187 232 236 222 259 267 223 181 195 175 156 151 153 153 157 154 155 160 156 158 162 160 166 183 212 211 239 256 220 167 166 198 238 242 258 291 303 319 328 325 281 283
Height
1504 1510 1515 1512 1511 1512 1516 1520 1523 1519 1513 1517 1521 1521 1518 1518 1519 1520 1521 1522 1522 1523 1526 1527 1527 1526 1526 1525 1525 1526 1526 1526 1526 1526 1526 1525 1525 1525 1525 1526 1526 1526 1526 1526
1510 1513 1506 1505 1507 1510 1514 1520 1521 1517 1514 1518 1523 1522 1518 1518 1518 1519 1520 1521 1521 1523 1524 1525 1525 1525 1525 1525 1525 1526 1526 1526 1526 1526 1525 1525 1525 1525 1525 1525 1525 1525 1525 1525
1512 1508 1502 1505 1508 1512 1514 1518 1518 1519 1517 1519 1523 1527 1522 1518 1518 1519 1520 1520 1521 1522 1522 1523 1524 1524 1525 1525 1525 1526 1526 1526 1526 1525 1525 1525 1524 1524 1524 1524 1524 1524 1524 1524
1508 1503 1503 1505 1508 1509 1517 1507 1510 1515 1525 1533 1528 1541 1525 1520 1518 1517 1517 1517 1518 1520 1521 1521 1522 1523 1524 1525 1525 1526 1526 1526 1525 1525 1524 1523 1523 1523 1523 1523 1523 1524 1524 1523
1507 1502 1503 1506 1504 1504 1509 1505 1510 1517 1526 1535 1533 1539 1531 1521 1520 1516 1514 1515 1516 1517 1519 1520 1521 1522 1523 1524 1525 1525 1526 1526 1525 1524 1523 1522 1522 1522 1522 1522 1522 1523 1523 1522
1503 1499 1500 1500 1500 1501 1504 1511 1518 1525 1534 1545 1536 1540 1535 1524 1517 1513 1511 1512 1513 1515 1517 1518 1520 1521 1522 1523 1524 1524 1524 1524 1524 1523 1522 1522 1521 1521 1521 1521 1521 1521 1521 1521
1508 1502 1498 1498 1503 1504 1507 1524 1543 1545 1553 1550 1536 1538 1532 1513 1509 1509 1509 1509 1511 1513 1515 1516 1518 1519 1521 1522 1523 1523 1524 1523 1523 1522 1521 1520 1520 1520 1520 1520 1520 1520 1520 1520
1519 1519 1501 1498 1501 1508 1511 1520 1543 1553 1556 1549 1538 1539 1522 1508 1506 1506 1507 1508 1510 1511 1513 1514 1516 1518 1520 1521 1522 1522 1522 1522 1522 1521 1520 1520 1519 1519 1519 1519 1519 1519 1519 1519
1518 1517 1499 1497 1497 1501 1512 1520 1522 1540 1546 1550 1543 1531 1516 1506 1506 1506 1507 1508 1509 1510 1512 1514 1516 1517 1519 1520 1521 1521 1521 1521 1520 1520 1519 1519 1518 1518 1518 1518 1518 1519 1518 1519
1504 1513 1503 1498 1498 1502 1505 1515 1529 1540 1552 1554 1543 1535 1527 1512 1509 1507 1508 1508 1509 1510 1512 1513 1515 1517 1518 1519 1520 1521 1520 1520 1520 1519 1519 1518 1518 1517 1517 1517 1517 1518 1518 1517
1500 1511 1510 1505 1507 1509 1512 1518 1528 1540 1541 1551 1551 1537 1508 1507 1505 1506 1506 1507 1508 1510 1511 1513 1515 1516 1518 1519 1519 1520 1520 1519 1519 1519 1518 1517 1517 1517 1517 1517 1516 1517 1517 1516
1501 1512 1520 1511 1503 1501 1504 1512 1523 1533 1539 1543 1546 1534 1500 1501 1501 1503 1504 1506 1508 1510 1512 1513 1515 1516 1517 1518 1518 1519 1519 1519 1519 1518 1518 1517 1517 1516 1516 1516 1516 1516 1516 1515
1499 1513 1527 1524 1518 1508 1508 1510 1516 1524 1535 1544 1544 1528 1501 1500 1501 1502 1503 1505 1507 1510 1511 1513 1514 1515 1516 1517 1517 1518 1518 1518 1518 1518 1517 1517 1517 1516 1516 1515 1516 1515 1515 1514
1494 1511 1520 1527 1521 1511 1510 1510 1513 1520 1531 1536 1530 1520 1507 1503 1502 1502 1503 1505 1506 1508 1510 1512 1513 1515 1515 1516 1517 1517 1517 1518 1517 1517 1517 1516 1516 1516 1515 1515 1515 1514 1514 1513
1494 1509 1509 1509 1506 1506 1506 1507 1510 1513 1516 1522 1517 1515 1505 1501 1500 1501 1502 1504 1506 1508 1509 1511 1512 1513 1515 1515 1516 1516 1517 1517 1517 1517 1516 1516 1516 1515 1515 1514 1514 1513 1513 1512
1497 1506 1508 1509 1505 1505 1507 1505 1506 1507 1509 1511 1510 1509 1499 1499 1499 1501 1502 1503 1505 1507 1508 1510 1511 1512 1514 1515 1515 1516 1516 1516 1516 1516 1516 1515 1515 1514 1514 1513 1513 1512 1511 1511
1502 1507 1515 1518 1510 1507 1515 1506 1504 1504 1503 1505 1508 1502 1498 1499 1499 1499 1500 1502 1503 1506 1508 1509 1510 1512 1513 1514 1515 1515 1515 1516 1516 1515 1515 1515 1514 1513 1512 1512 1512 1511 1510 1510
1502 1510 1518 1521 1515 1522 1510 1497 1496 1498 1498 1498 1497 1496 1496 1497 1498 1499 1500 1501 1503 1505 1507 1508 1510 1511 1513 1514 1515 1515 1515 1515 1515 1514 1514 1514 1513 1512 1512 1511 1511 1510 1509 1508
1496 1506 1519 1525 1524 1517 1504 1496 1495 1498 1499 1495 1495 1495 1496 1497 1499 1500 1500 1501 1503 1505 1507 1508 1509 1511 1512 1513 1514 1514 1514 1514 1514 1514 1513 1513 1512 1512 1511 1510 1509 1509 1508 1507
1499 1502 1514 1522 1521 1522 1505 1492 1491 1494 1501 1492 1492 1493 1494 1496 1503 1501 1499 1501 1503 1505 1507 1508 1509 1510 1511 1512 1513 1513 1513 1513 1513 1512 1512 1512 1511 1511 1510 1509 1509 1508 1507 1507
1506 1510 1515 1519 1518 1511 1494 1490 1491 1505 1501 1489 1490 1491 1492 1494 1496 1497 1498 1500 1502 1504 1506 1507 1508 1509 1510 1511 1511 1512 1512 1512 1512 1511 1511 1511 1510 1510 1509 1508 1508 1507 1506 1505
1508 1512 1515 1519 1518 1512 1490 1490 1493 1492 1486 1487 1488 1489 1490 1492 1494 1496 1498 1499 1502 1504 1505 1507 1508 1509 1510 1510 1510 1510 1510 1510 1510 1510 1510 1509 1509 1508 1507 1506 1506 1505 1504 1503
1504 1504 1505 1506 1504 1491 1488 1487 1486 1486 1485 1486 1487 1488 1489 1491 1494 1495 1497 1499 1501 1503 1504 1506 1507 1508 1508 1509 1509 1509 1509 1508 1508 1508 1508 1507 1507 1506 1505 1504 1504 1503 1503 1502
1499 1497 1500 1499 1492 1488 1486 1485 1484 1485 1485 1485 1486 1487 1489 1490 1493 1495 1497 1499 1501 1502 1503 1505 1506 1507 1507 1508 1508 1508 1508 1507 1507 1506 1506 1505 1504 1504 1503 1502 1502 1501 1500 1499
1495 1496 1497 1496 1490 1486 1484 1484 1483 1483 1484 1485 1486 1487 1488 1490 1492 1494 1495 1497 1499 1501 1502 1504 1505 1506 1506 1506 1506 1506 1506 1505 1504 1504 1504 1503 1502 1502 1501 1501 1500 1499 1498 1498
1491 1493 1495 1493 1486 1486 1484 1483 1483 1483 1483 1483 1485 1486 1488 1489 1491 1493 1494 1496 1498 1500 1501 1502 1503 1504 1504 1504 1504 1504 1503 1503 1502 1502 1501 1501 1500 1500 1499 1498 1498 1497 1497 1496